TimeEST,TemperatureF,Dew PointF,Humidity,Sea Level PressureIn,VisibilityMPH,Wind Direction,Wind SpeedMPH,Gust SpeedMPH,PrecipitationIn,Events,Conditions,WindDirDegrees,DateUTC
12:53 AM,30.9,30.0,96,30.23,10.0,Calm,Calm,-,N/A,,Clear,0,2013-01-20 05:53:00
1:53 AM,28.9,28.9,100,30.23,10.0,Calm,Calm,-,N/A,,Clear,0,2013-01-20 06:53:00
2:53 AM,28.0,27.0,96,30.23,10.0,Calm,Calm,-,N/A,,Clear,0,2013-01-20 07:53:00
3:53 AM,28.0,28.0,100,30.23,9.0,Calm,Calm,-,N/A,,Clear,0,2013-01-20 08:53:00
4:53 AM,27.0,27.0,100,30.22,8.0,Calm,Calm,-,N/A,,Clear,0,2013-01-20 09:53:00
5:53 AM,28.0,27.0,96,30.23,8.0,Calm,Calm,-,N/A,,Clear,0,2013-01-20 10:53:00
6:53 AM,27.0,26.1,96,30.24,10.0,Calm,Calm,-,N/A,,Clear,0,2013-01-20 11:53:00
7:53 AM,27.0,26.1,96,30.25,10.0,Calm,Calm,-,N/A,,Clear,0,2013-01-20 12:53:00
8:53 AM,32.0,30.9,96,30.25,10.0,Calm,Calm,-,N/A,,Clear,0,2013-01-20 13:53:00
9:53 AM,41.0,36.0,82,30.24,10.0,Calm,Calm,-,N/A,,Clear,0,2013-01-20 14:53:00
10:53 AM,46.9,37.0,68,30.24,10.0,Calm,Calm,-,N/A,,Clear,0,2013-01-20 15:53:00
11:53 AM,54.0,36.0,51,30.21,10.0,Calm,Calm,-,N/A,,Clear,0,2013-01-20 16:53:00
1:53 PM,57.0,36.0,45,30.15,10.0,NNW,4.6,-,N/A,,Clear,340,2013-01-20 18:53:00
2:53 PM,59.0,35.1,41,30.14,10.0,Calm,Calm,-,N/A,,Clear,0,2013-01-20 19:53:00
3:53 PM,60.1,36.0,41,30.13,10.0,Calm,Calm,-,N/A,,Clear,0,2013-01-20 20:53:00
4:53 PM,57.9,37.0,46,30.13,10.0,Variable,4.6,-,N/A,,Clear,0,2013-01-20 21:53:00
5:53 PM,51.1,39.9,66,30.12,10.0,Calm,Calm,-,N/A,,Clear,0,2013-01-20 22:53:00
6:53 PM,46.0,39.0,76,30.14,10.0,Calm,Calm,-,N/A,,Clear,0,2013-01-20 23:53:00
7:53 PM,46.9,37.9,71,30.13,10.0,Calm,Calm,-,N/A,,Clear,0,2013-01-21 00:53:00
8:53 PM,39.9,37.0,89,30.14,10.0,Calm,Calm,-,N/A,,Clear,0,2013-01-21 01:53:00
9:53 PM,37.0,36.0,96,30.14,10.0,Calm,Calm,-,N/A,,Clear,0,2013-01-21 02:53:00
10:53 PM,36.0,35.1,97,30.14,8.0,Calm,Calm,-,N/A,,Clear,0,2013-01-21 03:53:00
11:53 PM,34.0,33.1,96,30.14,7.0,Calm,Calm,-,N/A,,Clear,0,2013-01-21 04:53:00